Fort Leonard Wood, MO

7:43 AM CDT on May 27, 2018 (GMT -0500)
Waynesville Regional At Forney Field

Weather History for KTBN - November, 2013

Change the Weather History Date:

Monday, November 18, 2013

  Actual Average Record
Temperature  
Mean Temperature 48 °F -  
Max Temperature 56 °F 53 °F 73 °F (1999)
Min Temperature 36 °F 38 °F 9 °F (2014)
Degree Days  
Heating Degree Days 18    
Moisture  
Dew Point 29 °F    
Average Humidity 52    
Maximum Humidity 76    
Minimum Humidity 30    
Precipitation  
Precipitation 0.00 in - - ()
Sea Level Pressure  
Sea Level Pressure 30.23 in    
Wind  
Wind Speed 6 mph (NW)    
Max Wind Speed 13 mph    
Max Gust Speed 17 mph    
Visibility 10 miles    
Events      
Averages and records for this station are not official NWS values.
T = Trace of Precipitation, MM = Missing Value Source: NWS Daily Summary

Daily Weather History Graph

Daily Weather History Graph

Search for Another Location

Airport or City:

Astronomy

Nov. 18, 2013 Rise Set
Actual Time 6:52 AM CST 4:55 PM CST
Civil Twilight 6:23 AM CST 5:23 PM CST
Nautical Twilight 5:52 AM CST 5:55 PM CST
Astronomical Twilight 5:20 AM CST 6:26 PM CST
Moon 5:58 PM CST (11/18) 7:40 AM CST (11/18)
Length of Visible Light 10h 59m
Length of Day
10h 02m
Full, 99% of the Moon is Illuminated
Nov 18
Full
Nov 25
Last Quarter
Dec 2
New
Dec 9
First Quarter
Dec 17
Full

Hourly Weather History & Observations

Time (CST) Temp. Windchill Dew Point Humidity Pressure Visibility Wind Dir Wind Speed Gust Speed Precip Events Conditions
12:58 AM 48.0 °F - 26.8 °F 44% 30.04 in 10.0 mi WNW 5.8 mph - N/A   Clear
1:58 AM 45.7 °F 44.4 °F 27.9 °F 50% 30.06 in 10.0 mi WNW 3.5 mph - N/A   Clear
2:58 AM 43.5 °F 40.9 °F 28.8 °F 56% 30.08 in 10.0 mi WSW 4.6 mph - N/A   Clear
3:58 AM 43.2 °F 40.5 °F 29.8 °F 59% 30.10 in 10.0 mi West 4.6 mph - N/A   Clear
4:58 AM 43.0 °F - 30.6 °F 62% 30.09 in 10.0 mi North 1.2 mph - N/A   Clear
5:58 AM 40.3 °F 37.1 °F 31.5 °F 71% 30.16 in 10.0 mi West 4.6 mph - N/A   Clear
6:58 AM 39.6 °F 35.4 °F 32.7 °F 76% 30.19 in 10.0 mi West 5.8 mph - N/A   Clear
7:58 AM 41.7 °F 38.8 °F 34.7 °F 76% 30.23 in 10.0 mi West 4.6 mph - N/A   Clear
8:58 AM 45.3 °F 42.3 °F 36.1 °F 70% 30.25 in 10.0 mi Variable 5.8 mph - N/A   Clear
9:58 AM 49.1 °F - 36.9 °F 63% 30.26 in 10.0 mi WNW 8.1 mph - N/A   Clear
10:58 AM 52.0 °F - 33.8 °F 50% 30.26 in 10.0 mi NNW 12.7 mph - N/A   Clear
11:58 AM 54.3 °F - 32.4 °F 43% 30.26 in 10.0 mi NW 11.5 mph 17.3 mph N/A   Clear
12:58 PM 55.8 °F - 29.8 °F 37% 30.25 in 10.0 mi North 12.7 mph 17.3 mph N/A   Clear
1:03 PM 55.4 °F - 28.4 °F 36% 30.25 in 10.0 mi NW 11.5 mph 17.3 mph N/A   Clear
1:58 PM 56.7 °F - 25.5 °F 30% 30.25 in 6.0 mi NW 9.2 mph - N/A   Haze
2:58 PM 55.8 °F - 25.3 °F 31% 30.27 in 5.0 mi NNW 11.5 mph 17.3 mph N/A   Haze
3:58 PM 54.1 °F - 24.8 °F 32% 30.27 in 10.0 mi North 9.2 mph - N/A   Clear
4:58 PM 50.2 °F - 25.7 °F 39% 30.27 in 10.0 mi North 5.8 mph - N/A   Clear
5:58 PM 46.4 °F - 24.3 °F 42% 30.27 in 10.0 mi NNE 1.2 mph - N/A   Clear
6:58 PM 46.4 °F - 25.7 °F 44% 30.29 in 10.0 mi NNE 2.3 mph - N/A   Clear
7:58 PM 42.3 °F - 25.3 °F 51% 30.31 in 9.0 mi Calm Calm - N/A   Clear
8:58 PM 42.8 °F - 25.7 °F 51% 30.32 in 9.0 mi SE 2.3 mph - N/A   Clear
9:58 PM 39.0 °F 36.8 °F 27.3 °F 63% 30.32 in 10.0 mi South 3.5 mph - N/A   Clear
10:58 PM 41.5 °F 38.6 °F 27.7 °F 58% 30.31 in 10.0 mi SE 4.6 mph - N/A   Clear
11:58 PM 36.0 °F - 27.1 °F 70% 30.30 in 10.0 mi SSW 1.2 mph - N/A   Clear